Tracking 30995 objects as of 7-Jul-2025
HD Live streaming from Space Station
objects crossing your sky now

FREGAT R/B

Track FREGAT R/B now!


NORAD ID: 40891
Int'l Code: 2015-045C
Perigee: 23,456.2 km
Apogee: 23,623.1 km
Inclination: 54.9 °
Period: 858.0 minutes
Semi major axis: 29910 km
RCS: Unknown
Launch date: September 11, 2015
Source: Commonwealth of Independent States (former USSR) (CIS)
Launch site: FRENCH GUIANA (FRGUI)

Note: This is a ROCKET BODY
Your satellite tracking list
FENGYUN 1C DEB
Track 1 satellite(s)




NASA's NSSDC Master Catalog

Two Line Element Set (TLE):
1 40891U 15045C   25186.00032161  .00000050  00000-0  00000-0 0  9997
2 40891  54.9278 234.1939 0027890 230.8295 129.0084  1.67827940 60177
Source of the keplerian elements: AFSPC